Location: Unspecified
(0.0000°N, 0.0000°E)
Time: 14:52:41
(UTC+00:00)

deb Delta 126 - Pass Details

Date: 16 February 2026
Orbit: 1502 x 2092 km, 101.9° (Epoch: 4 March)

Event Time Altitude Azimuth Distance (km) Brightness Sun altitude
Rises 03:49:46 0° 14° (NNE) 4,686 ? -35.1°
Reaches altitude 10° 03:52:29 10° 13° (NNE) 3,744 ? -34.5°
Maximum altitude 04:01:17 83° 287° (WNW) 1,681 ? -32.3°
Drops below altitude 10° 04:11:09 10° 199° (SSW) 4,153 ? -29.9°
Sets 04:14:19 0° 198° (SSW) 5,224 ? -29.2°
